PSLV R/B, 40058

Orbit data source: Space-Track

PSLV R/B, 40058 is space debris in SSO originally from a launch on Mon, 30 Jun 2014 UTC launched from the Sirharikota (SRI). Debris objects in space refer to the collection of defunct objects orbiting the Earth. Examples of debris include non-operational satellites, rocket bodies, and fragments generated from explosions, collisions, or faulty payload assembly.

Loading next visibility...
Identifier
40058, 2014-034F
Orbit
SSO
Last TLE update
10 hours ago
Origin
Manufacturer
VSSC/LPSC
Mission
Spacecraft
Bus & Motor
PS-4, Unknown motor
Mass
920 kg wet, 920 kg dry
Launch date (UTC)
2014-06-30 (11 years ago)
Launch vehicle
Unknown
Launch site
Sirharikota (SRI)
Object type
Payload
Rocket body
Debris
Shape & HBR
Cyl + Cyl + 2 Nozzle, 3.238 m
Radar Cross Section
6.185 m², Large (>1 m²)

Expand to show TLE details & history

TLE from 10 hours ago
0 PSLV R/B
1 40058U 14034F   25182.82459730  .00000637  00000-0  84438-4 0  9992
2 40058  98.3247  25.3302 0021151  29.5183 330.7218 14.83456321594116
Epoch: 2025-07-01T19:47Z
TLE epoch observation values (Epoch: 2025-07-01T19:47:25.206Z)
Latitude
-0.00013°
Longitude
168.36069°
Altitude
608.545 km
Speed
7.562 km/s
True Right ascension
01h 41m 19s
True Declination
0° 00' 00"
Sunlit
Object was in daylight at epoch
Visualization orbit readout
Latitude
44.51346°
Longitude
-2.96533°
Altitude
629.414 km
Speed
7.546 km/s
Apparent Right ascension
10h 06m 59s
Apparent Declination
10° 29' 46"
Sunlit
Object is in daylight
Visualization observer readout
Local Sidereal Time
17:48:10
Azimuth
294.72° NW
Elevation
-11.848°
Doppler factor
1
Orbital elements
Apogee altitude
630.283 km
Perigee altitude
600.699 km
Semi-major axis
6,993.628 km
Eccentricity
0.00212
Inclination
98.3247°
RAAN
25.3302°
Arg. of periapsis
29.5183°
True anomaly
Unknown
Mean anomaly
330.7218°
Eccentric anomaly
Unknown
Mean motion
3.71099 °/min
Orbital period
97.01 mins
BSTAR
0.000084438
Loading maneuver chart data...
Loading SW <> Apogee altitude chart data...
Loading historical data...
Loading historical data...
Loading historical data...
Loading historical data...
Loading historical data...
Loading historical data...
Loading historical data...
Other satellites on launch #34 in the year 2014 (2014-06-30 UTC)

PSLV R/B Visibility forecast

Observer location: undefined°, undefined°

Span
Click to sort rows by Start time (UTC) header in descending order
Start Az.
Max El. time (UTC)
Max El. Az.
Max El.
End time (UTC)
End Az.
7 mins2025-07-02 13:43:29.208Z179.957° S2025-07-02 13:46:29.208Z255.37° W41.761°2025-07-02 13:50:29.208Z339.793° N
5 mins2025-07-03 01:31:29.208Z55.974° ENE2025-07-03 01:33:29.208Z89.61° E19.852°2025-07-03 01:36:29.208Z139.465° SSE
6 mins2025-07-03 03:07:29.208Z339.548° N2025-07-03 03:09:29.208Z299.207° NW27.575°2025-07-03 03:13:29.208Z228.573° WSW
|